Theta_e
342 343 342 340 339 341 340 341 340 340 338 339 340 340 340 340 340 339 338 337 335 333 330 327 325 329 332 330 324 326 329 330 332 333 334 333 333 334 334 334 335 335 335 335 335 336 336 336 336 336 335 334 334 334 334 334 333 333 332 331 328 326 326 325 322 320 323 328 330 331 331 331 330 330 330 330 330 330 330 330 330 330 332 333 334
343 342 341 340 339 341 341 341 340 341 338 339 340 340 340 339 340 338 337 336 335 333 331 326 325 329 331 331 326 325 328 328 331 333 333 332 332 333 333 333 333 333 334 334 334 335 336 336 335 335 334 333 334 333 333 332 331 330 330 328 326 324 324 326 328 328 327 328 328 329 330 331 330 330 329 329 329 329 329 329 329 329 330 330 329
343 342 342 340 339 340 341 342 341 341 339 339 340 340 339 339 339 337 335 333 335 334 329 322 324 331 331 331 326 325 328 329 331 332 332 332 332 332 332 332 332 333 333 333 333 334 335 336 335 334 333 332 332 332 331 330 329 330 329 327 325 322 322 325 329 329 329 329 329 328 329 329 329 329 329 329 328 328 329 329 328 329 330 330 328
343 343 343 340 339 340 341 342 342 341 341 341 340 340 339 339 338 335 334 332 335 332 324 320 326 331 331 331 327 324 328 329 330 331 331 331 332 332 332 331 332 332 332 333 334 335 334 334 333 332 330 330 330 330 330 329 327 327 327 326 324 321 322 326 329 329 328 328 328 328 328 328 329 329 329 329 328 328 328 328 328 329 329 329 329
343 343 343 341 340 340 340 341 341 341 341 341 340 340 339 338 337 334 333 332 335 331 321 323 330 331 331 331 328 327 328 329 330 331 331 331 331 331 331 331 331 330 331 333 334 334 334 332 331 329 328 328 328 328 328 326 324 323 322 322 322 321 323 327 328 328 328 327 327 327 327 328 328 329 329 328 328 327 327 327 328 328 328 328 328
343 343 342 342 341 340 340 339 339 340 339 339 340 339 338 338 336 333 331 332 335 330 324 328 332 331 331 329 325 326 327 329 330 331 330 330 330 331 331 331 331 330 330 333 334 333 333 331 328 326 327 327 327 327 325 322 320 319 319 320 321 323 326 328 328 327 327 327 327 327 327 328 329 329 328 328 328 327 327 327 327 327 327 327 328
342 343 342 342 341 339 339 338 338 339 338 338 338 338 338 337 334 330 328 331 334 329 326 329 331 330 329 328 323 322 325 329 330 330 329 329 330 330 330 330 330 330 331 333 333 333 332 330 328 326 327 326 326 326 324 322 318 316 319 322 323 325 326 327 327 327 327 327 326 326 326 327 327 328 328 328 328 327 327 327 326 326 327 326 327
342 343 343 342 341 339 339 338 339 338 337 337 337 337 337 336 332 329 328 332 335 330 328 330 330 329 329 325 320 321 324 328 330 329 329 329 329 329 330 330 330 330 331 332 332 331 331 329 328 327 327 326 326 325 323 321 316 316 320 323 325 325 326 326 327 326 326 326 326 326 326 326 326 326 327 327 327 326 326 326 326 326 326 326 326
341 343 343 344 342 338 338 338 339 339 337 337 337 337 336 335 332 328 329 335 336 329 328 331 330 329 329 324 316 318 323 327 329 328 328 329 329 329 329 329 329 331 331 331 331 330 330 329 328 328 328 326 325 322 320 319 318 319 322 324 325 326 326 326 326 326 326 326 326 326 326 326 326 326 326 326 326 326 325 325 325 325 325 325 325
341 341 342 343 341 338 338 339 340 339 338 338 338 337 334 332 330 327 331 336 335 327 327 331 331 330 326 321 314 315 319 324 328 328 328 328 328 328 328 328 329 330 331 330 331 331 330 329 328 328 327 325 323 320 321 322 322 322 324 325 326 326 326 326 326 326 327 326 326 326 326 326 326 326 327 326 326 325 325 325 325 325 325 325 325
341 340 341 342 339 338 338 339 340 340 339 338 339 337 332 330 327 328 332 336 335 328 328 331 330 328 322 317 313 311 314 318 325 328 327 328 327 328 328 328 328 330 331 330 330 330 330 329 328 327 325 323 321 318 321 323 323 324 325 325 326 326 325 326 326 326 326 327 327 326 326 327 327 327 327 327 327 326 326 326 326 326 326 326 326
341 340 342 343 340 338 339 339 340 340 339 339 339 336 331 329 326 328 333 335 336 331 329 331 330 327 322 317 312 308 309 312 323 328 327 327 327 327 328 327 328 329 330 330 330 330 330 329 328 326 323 322 319 314 318 322 323 325 325 325 326 326 326 326 327 328 328 328 329 328 328 328 328 329 328 328 328 327 327 327 327 326 326 326 326
341 341 343 343 340 339 339 340 340 340 339 339 339 334 327 326 326 329 333 335 336 334 331 331 331 328 323 320 313 307 305 308 320 328 328 327 327 327 328 328 328 329 329 329 329 329 329 328 326 324 322 322 319 315 317 321 324 324 325 325 326 326 327 327 328 330 330 330 330 329 329 329 329 329 329 328 327 326 327 327 326 326 325 325 325
342 341 343 343 341 340 340 340 340 340 339 339 340 335 326 324 327 330 333 335 335 335 332 331 331 329 324 322 317 310 306 305 313 324 328 328 327 327 327 328 328 329 329 329 328 328 328 327 325 323 322 321 319 317 318 321 324 324 324 324 325 325 326 326 328 329 329 329 329 329 329 329 329 329 328 327 327 326 326 326 325 325 324 324 324
342 342 343 343 342 340 340 340 340 339 339 339 340 338 329 323 327 330 331 334 335 335 333 332 332 330 326 324 320 314 309 305 306 315 323 326 327 327 326 327 327 327 327 326 326 326 326 325 324 323 322 320 318 318 319 321 322 323 324 324 324 324 324 325 326 326 327 327 328 328 328 328 329 328 327 327 326 326 325 325 325 324 323 322 322
342 343 343 343 342 340 340 340 340 339 339 339 340 339 333 327 329 331 331 332 334 335 334 332 332 331 329 325 322 319 313 308 306 307 314 320 324 326 326 325 325 325 325 325 324 324 324 323 323 323 321 320 319 318 319 320 321 322 323 323 323 323 323 323 324 324 324 325 325 326 326 326 327 326 326 327 326 326 325 324 323 323 322 321 320
342 342 343 342 342 341 340 340 340 340 340 340 340 339 336 333 333 333 331 332 333 335 334 333 333 332 331 327 324 322 318 312 308 307 309 313 317 320 320 320 320 320 321 322 323 323 323 322 322 321 319 319 319 318 320 321 320 321 322 322 322 322 322 322 321 321 321 322 322 323 323 323 324 324 325 325 324 325 324 324 322 322 323 321 319
341 342 343 342 343 341 341 341 341 340 340 340 340 339 338 337 336 335 332 332 333 334 334 333 333 332 331 329 326 324 322 317 311 308 306 306 308 311 310 309 310 310 311 313 316 317 320 322 320 318 318 319 318 317 319 321 319 318 320 321 321 321 321 321 321 321 321 321 321 321 322 321 321 322 322 322 322 322 323 324 322 321 321 320 318
342 342 342 342 343 342 342 341 341 341 340 340 340 339 339 338 338 337 334 332 332 333 333 333 333 333 331 330 328 326 324 322 318 312 307 304 303 304 303 303 303 303 303 304 305 307 314 318 316 316 317 318 317 315 316 319 317 314 318 321 321 321 321 321 321 321 322 322 322 322 322 321 322 322 321 321 321 321 321 322 322 321 321 319 318
342 342 342 342 342 342 342 342 341 341 340 340 340 340 339 339 338 337 335 333 333 332 333 333 333 332 331 330 329 328 325 323 321 315 309 305 302 302 301 301 300 300 300 301 301 304 310 312 311 313 314 315 314 312 313 315 311 310 317 321 321 322 322 322 323 323 324 324 323 323 323 323 323 323 322 322 321 321 321 322 321 322 321 318 315
341 341 342 342 342 342 342 342 342 341 340 340 340 340 339 339 339 338 337 334 333 332 332 333 333 332 331 331 330 328 326 323 321 315 310 307 304 303 301 300 300 300 300 300 300 303 306 306 307 310 311 312 311 310 310 309 307 312 319 321 321 322 322 323 323 324 324 323 323 323 323 323 323 323 322 322 322 322 322 322 321 320 318 316 314
340 341 341 342 341 342 342 341 342 341 341 341 340 340 339 339 339 338 337 335 334 333 332 333 333 332 331 331 330 328 327 324 321 316 312 310 308 305 303 300 299 300 300 300 300 301 302 303 305 308 310 310 309 309 308 306 309 316 319 320 320 321 322 322 323 323 323 322 322 323 323 323 323 322 322 322 322 322 321 320 318 318 317 317 316
339 340 340 341 341 341 341 341 341 341 341 341 340 340 340 339 338 338 338 336 335 333 332 333 333 333 332 332 331 330 329 326 322 319 316 315 312 310 306 303 301 300 299 299 299 299 300 301 303 305 307 309 310 310 309 309 313 318 318 318 320 320 321 321 321 322 322 322 322 323 323 323 322 322 322 322 321 321 320 318 316 318 318 317 317
338 339 339 340 340 340 341 340 340 340 340 341 340 340 340 339 339 339 338 337 336 335 334 334 334 333 333 333 332 331 329 327 324 321 319 317 315 312 310 307 304 301 300 300 299 299 299 300 302 304 307 310 312 312 312 314 316 317 317 317 317 319 319 320 320 320 321 322 322 322 321 322 322 322 321 320 319 318 318 317 315 316 316 316 315
337 338 338 338 338 339 340 340 339 340 340 340 340 340 340 340 339 339 339 337 337 336 335 334 334 334 334 333 333 332 330 328 325 322 320 317 315 313 311 308 305 302 301 300 299 299 299 301 304 307 309 310 311 311 312 314 316 317 317 316 315 316 317 318 318 319 320 320 321 321 321 322 322 321 321 319 318 317 317 316 316 315 315 314 314
336 337 337 337 337 337 338 338 337 338 339 339 339 339 340 340 339 339 338 337 337 337 336 335 335 334 334 334 333 332 329 328 326 324 323 320 317 316 315 311 306 304 302 301 301 301 302 304 306 308 308 309 310 311 312 314 316 317 317 317 315 315 315 316 316 317 318 318 319 319 319 320 320 320 320 319 318 318 317 316 314 314 314 314 313
335 335 336 336 335 337 337 336 336 336 337 337 338 338 339 340 339 339 338 338 337 337 336 335 335 335 334 334 333 332 329 327 327 327 325 322 321 321 319 315 310 308 307 307 306 307 307 306 307 309 311 312 313 313 314 315 315 315 316 317 316 315 314 314 315 315 316 317 317 318 318 318 318 318 318 318 316 316 315 315 314 313 313 313 313
335 335 335 335 335 337 336 335 336 335 335 336 336 337 337 338 339 339 338 338 337 337 337 336 335 335 335 334 333 331 329 328 328 328 327 325 325 322 318 316 314 313 312 311 311 311 310 309 311 314 315 315 315 315 314 314 313 313 313 315 315 315 314 313 313 314 315 315 316 316 316 315 316 316 316 316 315 314 314 314 314 314 313 313 312
335 334 334 334 335 335 333 333 334 335 335 335 335 335 335 337 338 338 338 338 337 337 336 336 336 335 335 334 333 332 330 329 328 328 328 326 325 322 319 318 317 314 313 313 313 313 313 313 315 315 315 314 313 313 312 311 310 310 310 311 313 314 313 313 312 312 313 313 314 314 314 313 313 313 314 314 314 314 314 313 313 313 312 312 311
334 333 334 334 333 332 332 332 333 333 334 335 335 334 334 335 336 338 338 337 337 337 336 336 336 335 335 334 334 333 331 329 329 328 328 327 326 322 320 320 318 316 315 315 314 314 314 314 313 313 312 311 310 310 309 309 308 308 307 308 310 312 312 311 311 311 311 311 312 312 312 311 311 312 311 312 312 312 312 312 312 311 311 311 310
334 333 333 333 332 331 331 332 333 332 333 333 333 333 333 334 335 335 335 336 337 337 336 336 336 335 335 334 334 333 332 330 329 328 328 328 326 323 322 320 319 318 316 316 315 314 314 313 312 310 310 310 307 306 307 308 307 306 306 305 306 308 310 309 309 309 309 309 308 309 309 308 309 310 310 310 310 310 311 310 310 310 310 310 309
333 333 333 332 331 330 331 333 333 332 332 332 332 332 332 332 334 333 333 336 337 336 335 335 335 335 335 335 334 333 332 331 330 329 328 328 327 324 323 320 320 319 318 316 315 314 313 312 311 309 310 310 306 303 304 306 306 305 304 303 302 303 305 305 304 304 305 306 306 306 307 306 306 306 307 308 309 309 309 309 309 309 308 308 308
332 332 332 332 331 330 331 332 331 331 331 331 332 332 331 331 333 332 334 337 336 336 335 335 335 335 335 335 335 334 332 332 332 330 328 328 327 325 323 321 321 320 318 317 316 315 314 313 311 309 308 308 304 302 302 302 302 302 300 299 297 297 298 298 297 298 299 301 303 304 304 304 303 303 303 304 305 306 307 308 308 307 307 307 306
331 331 331 331 330 329 330 331 330 330 329 329 329 329 329 331 332 332 334 336 335 335 335 334 335 335 335 334 335 334 333 332 332 331 330 328 327 325 324 322 321 322 320 319 318 317 317 316 314 309 306 306 304 301 300 299 299 298 297 295 294 293 293 293 293 294 295 296 297 299 299 299 300 299 299 299 299 302 304 305 306 306 306 306 305
330 330 330 331 330 328 329 330 329 329 328 328 327 328 328 329 331 332 333 333 334 334 334 335 335 334 335 334 334 334 333 332 332 332 331 329 328 326 325 323 323 323 322 321 319 319 319 318 315 310 307 305 303 300 299 298 296 296 295 294 293 292 292 292 292 292 292 292 293 294 295 295 295 295 295 295 295 296 298 300 302 304 305 305 304
328 328 329 330 329 327 327 328 328 328 328 327 327 327 328 328 329 331 331 332 332 332 332 334 334 333 334 334 334 334 333 332 332 332 331 330 329 327 326 324 323 323 322 321 320 319 319 317 315 312 309 305 301 300 299 297 296 295 294 293 292 292 292 292 292 292 291 291 291 291 292 292 291 291 291 290 291 291 292 293 295 300 302 303 304
325 325 326 327 327 327 326 326 326 326 326 326 326 326 326 327 328 328 330 330 330 331 330 332 332 331 332 333 333 333 333 332 332 332 331 330 329 328 326 324 323 323 323 321 320 319 318 317 314 311 311 306 300 299 298 296 295 294 293 293 292 292 292 292 292 292 291 291 290 290 290 290 290 289 289 288 288 288 289 289 290 293 296 299 301
322 322 323 324 325 326 325 325 325 325 325 325 325 325 326 326 327 326 327 328 329 330 329 331 331 329 330 332 332 332 332 332 331 331 330 330 329 328 327 324 323 323 322 320 319 319 318 318 314 309 309 306 300 299 298 296 295 294 293 292 292 292 292 291 291 291 291 290 290 290 289 289 289 289 288 288 288 287 287 288 288 288 289 292 294
320 320 321 322 323 324 323 323 324 324 324 324 324 324 325 325 326 326 325 326 327 328 327 329 330 329 330 331 332 331 332 332 331 331 330 330 329 328 327 324 323 323 322 320 318 317 316 316 314 309 306 304 301 298 297 296 294 293 293 292 292 292 291 291 291 291 290 290 290 289 289 289 288 288 288 288 287 287 287 287 287 287 287 288 288
318 319 320 321 322 322 322 322 322 323 322 321 321 322 322 322 324 325 324 324 325 326 326 327 329 330 331 331 331 331 331 331 331 330 330 329 329 328 328 325 324 322 320 319 318 317 316 314 313 311 307 303 300 298 297 296 294 293 292 291 291 291 291 291 291 291 290 289 289 288 288 288 288 287 287 287 287 287 287 287 287 287 287 287 287
317 318 319 320 320 321 321 321 321 321 321 320 320 320 320 321 322 323 323 323 324 325 325 325 327 328 329 330 330 330 330 330 330 330 329 329 328 329 328 326 324 322 320 320 318 317 316 314 313 311 309 305 300 297 296 296 294 293 292 291 291 290 290 290 290 290 289 288 288 288 287 287 287 287 287 287 287 287 287 287 287 287 287 287 286
316 317 318 319 320 320 321 320 320 320 320 319 319 319 319 319 319 320 321 321 322 323 322 323 324 326 328 329 330 329 329 330 330 330 329 328 327 328 327 326 324 322 321 319 317 315 313 313 312 308 305 305 301 297 296 297 296 294 293 292 291 290 289 289 289 289 288 288 288 288 288 287 286 286 286 286 286 287 287 287 287 287 287 286 286
315 316 317 318 319 320 320 320 320 319 319 319 319 318 317 316 316 318 320 321 321 320 321 321 323 327 327 328 329 330 330 329 329 330 330 329 327 327 327 325 324 322 320 317 315 314 312 311 312 310 305 302 300 297 297 299 298 295 294 294 293 292 291 289 289 288 288 288 288 288 288 287 286 286 286 286 286 286 287 287 287 287 286 286 286
315 316 316 318 319 320 320 320 320 319 319 319 318 317 316 315 316 318 320 321 319 318 321 322 323 326 327 328 329 330 330 329 329 330 330 330 328 328 327 324 321 320 318 317 314 313 313 311 310 312 310 303 298 296 298 301 300 297 297 297 296 295 295 292 290 289 288 288 288 288 288 287 286 286 286 286 286 286 286 286 286 286 286 286 285
314 315 316 317 318 319 319 319 319 319 319 318 317 316 315 315 317 318 319 319 317 317 320 321 323 325 325 327 328 328 329 329 329 329 329 329 329 328 327 323 320 317 317 317 315 314 315 314 311 311 312 308 301 297 298 301 300 299 300 299 297 297 299 295 291 289 288 288 289 288 288 286 286 286 286 286 286 286 286 286 286 285 285 285 285
314 315 316 316 317 318 318 319 319 319 318 318 317 315 315 315 316 317 317 317 317 317 320 321 322 322 323 324 325 326 327 328 328 328 327 327 327 327 325 323 321 320 318 317 318 317 315 313 312 312 313 312 306 299 298 300 300 299 301 301 300 301 299 294 292 291 288 288 289 288 287 287 286 287 286 285 285 285 285 285 285 285 285 285 284
314 314 316 316 317 318 318 318 318 318 318 317 316 315 314 315 315 316 316 317 317 317 319 321 321 321 322 322 323 325 325 325 325 325 325 325 326 325 323 322 322 321 319 318 318 318 317 314 312 314 314 310 305 301 300 301 300 299 300 301 301 301 298 295 295 293 290 289 289 288 287 287 286 286 286 285 285 285 285 285 285 284 284 284 284
313 314 315 316 316 317 317 317 318 317 317 317 316 314 314 314 315 315 316 317 318 318 318 319 320 320 321 321 322 323 323 323 323 324 325 325 325 323 322 322 322 322 320 319 319 318 317 315 312 313 312 307 304 303 303 302 301 300 299 300 300 299 297 296 297 295 293 292 289 288 288 287 286 286 286 285 285 285 284 284 284 284 284 284 284
313 313 314 315 316 316 316 317 317 316 316 315 315 314 313 314 314 314 316 316 317 318 316 316 318 319 320 320 320 321 321 322 322 323 324 324 323 323 322 322 322 322 321 319 318 317 315 315 314 311 309 306 304 305 305 304 304 302 300 299 299 298 297 297 297 297 296 294 290 289 289 287 286 286 286 285 285 285 284 284 284 284 284 284 284
313 313 314 314 315 315 316 316 316 316 315 314 314 313 313 313 313 314 316 317 317 317 316 316 317 317 318 319 320 321 321 321 321 322 323 323 322 322 321 321 321 320 320 318 316 314 313 314 314 312 309 308 306 306 306 305 305 304 302 300 299 299 298 297 297 297 296 295 293 291 289 288 287 287 287 285 285 285 284 284 284 284 284 284 284
312 313 313 314 314 315 315 315 315 315 315 314 313 312 312 312 313 314 316 317 317 317 316 316 316 316 317 318 320 320 320 320 320 321 321 321 321 320 320 320 319 319 318 317 315 314 312 312 312 309 308 308 307 306 307 306 305 304 302 301 299 299 298 297 296 296 295 295 294 292 290 288 287 288 287 285 285 284 284 284 284 284 284 284 284
Wind_Speed
13 11 12 13 14 12 12 13 14 14 12 13 14 14 13 14 14 13 13 12 12 12 12 12 11 12 12 12 13 14 15 15 16 15 15 15 15 15 16 17 17 17 17 18 18 19 18 16 17 17 18 18 18 19 20 20 21 22 22 23 23 23 23 25 28 29 29 30 29 29 28 28 29 28 28 27 28 28 27 26 25 25 23 22 23
14 12 12 13 14 13 13 12 14 14 11 12 14 14 14 14 14 13 13 12 11 12 12 10 10 12 13 12 13 15 15 15 17 16 15 15 15 15 15 16 16 17 17 17 17 18 17 16 16 17 18 18 18 19 19 20 21 21 22 22 22 23 24 26 28 28 28 29 29 30 30 29 29 28 28 27 27 29 29 27 26 26 25 24 25
15 12 11 13 15 13 12 11 13 14 14 13 13 13 13 14 14 13 12 11 11 11 11 11 12 13 13 12 13 15 16 15 17 16 15 15 15 15 15 16 16 16 16 17 17 17 16 15 16 17 17 17 18 18 18 19 20 20 20 21 22 23 25 27 28 27 26 26 27 28 29 29 29 28 28 28 28 29 29 28 28 27 27 27 27
14 12 11 13 14 14 13 12 12 13 15 14 14 13 13 14 14 12 12 11 11 12 13 12 13 13 13 13 13 15 16 16 16 16 15 15 15 15 16 16 16 16 16 17 17 17 16 16 16 16 16 17 17 17 17 18 18 19 19 20 21 23 26 28 29 26 25 25 24 25 26 28 28 28 28 28 29 29 28 28 28 28 27 28 28
13 11 11 12 13 14 14 13 12 12 14 15 15 14 14 14 13 12 12 11 11 12 13 13 13 13 13 12 13 15 15 16 16 16 15 15 15 16 16 16 16 16 17 17 17 17 16 16 16 16 17 17 17 17 17 17 18 18 19 20 21 23 27 29 27 26 25 24 24 24 25 26 27 27 27 27 28 28 27 27 27 27 27 28 29
13 12 12 12 12 13 14 14 13 11 12 13 14 13 13 13 12 12 11 11 11 13 14 13 13 13 13 12 13 15 16 16 16 16 16 16 16 16 16 16 16 16 17 17 16 17 17 17 16 16 17 18 17 17 17 18 18 19 21 22 24 25 27 27 25 23 23 23 23 23 24 24 25 25 25 26 27 27 27 27 27 27 27 28 29
14 13 12 12 12 14 14 14 13 11 11 12 12 11 12 12 11 11 11 12 12 13 14 13 13 13 13 13 13 15 17 17 17 16 16 16 16 16 16 16 16 16 17 16 17 17 17 17 16 17 17 17 17 17 18 18 19 21 24 26 27 28 28 26 23 22 22 22 22 23 23 23 24 24 23 24 25 26 27 28 28 28 28 28 28
14 13 12 11 12 15 15 14 13 12 11 12 11 11 11 11 11 10 12 13 12 13 14 14 13 13 13 13 14 15 17 18 17 17 17 17 17 17 17 16 16 17 17 17 17 17 17 17 17 17 17 17 17 17 18 18 20 22 25 28 28 28 27 25 23 23 23 22 22 22 23 23 23 25 24 24 24 24 26 27 28 29 28 29 29
13 13 13 12 12 16 16 15 14 13 13 12 12 10 10 11 11 11 13 13 12 13 14 14 13 13 12 13 14 15 16 17 18 17 17 17 17 17 17 17 17 17 17 17 17 17 17 18 18 18 17 17 16 17 19 19 22 24 26 28 28 26 24 23 22 23 23 23 22 22 23 22 22 24 23 24 25 24 25 26 27 28 28 29 29
13 13 13 12 14 17 16 15 14 13 13 13 12 10 10 12 12 12 14 13 13 13 13 13 13 12 12 12 14 15 16 17 18 18 17 17 17 17 17 17 18 17 17 17 18 17 17 18 18 17 17 16 16 18 20 20 23 26 28 28 27 26 23 23 23 23 23 23 23 22 23 22 21 22 22 23 24 25 26 26 27 27 27 28 28
13 13 12 11 15 17 16 15 14 13 13 13 12 11 11 13 13 14 15 13 13 12 13 13 12 12 12 12 14 15 15 17 18 18 17 17 17 17 17 17 17 18 18 17 17 17 17 17 17 16 16 16 17 20 20 21 25 27 27 27 26 25 23 23 23 23 23 23 23 22 22 22 21 21 21 23 23 24 25 25 25 25 26 26 26
13 13 11 11 16 17 16 15 14 13 13 13 12 11 12 13 14 15 14 13 13 12 12 13 12 11 11 12 13 14 15 16 18 19 18 17 17 17 17 17 17 18 18 17 17 17 17 17 17 16 16 16 19 21 22 24 27 28 27 26 25 24 23 23 23 23 22 22 22 21 20 20 20 19 21 23 23 24 24 23 24 25 25 26 25
13 12 11 11 14 16 15 15 14 13 13 13 12 11 12 14 14 14 13 13 13 12 12 12 12 11 12 12 13 14 14 16 18 19 18 17 17 17 17 17 17 17 17 16 16 16 16 16 15 15 16 17 19 21 23 25 27 28 28 26 24 24 24 24 23 22 21 21 22 20 19 19 19 20 22 23 23 24 24 24 25 25 25 25 25
14 12 11 11 13 15 15 14 13 13 13 13 12 11 12 14 15 14 13 13 13 13 12 12 11 11 12 12 13 14 14 15 17 18 18 18 17 17 17 17 17 17 16 16 17 16 16 16 15 15 16 18 20 22 24 26 27 28 26 25 24 23 23 24 23 22 23 23 22 22 22 21 22 22 23 24 24 24 24 25 25 24 25 25 25
14 13 12 12 13 15 15 14 13 13 13 13 13 12 12 14 14 14 14 13 13 13 13 12 11 11 11 12 13 14 14 15 16 17 18 18 18 17 17 17 16 16 16 16 17 16 16 16 16 16 17 18 20 21 23 24 25 25 25 23 22 21 20 21 21 21 22 23 22 22 23 23 23 23 24 24 24 23 23 24 24 24 24 25 25
14 14 13 13 13 15 16 15 14 14 14 13 13 13 13 13 13 13 14 14 13 13 13 12 11 11 11 12 12 13 14 14 15 16 17 17 18 18 17 17 17 17 17 17 17 17 16 17 16 17 18 19 20 21 22 22 22 23 24 23 23 22 20 20 20 20 20 20 21 21 23 23 23 24 24 24 23 23 23 24 24 24 24 24 24
14 15 14 14 13 15 16 15 15 15 15 14 14 14 14 14 14 14 14 14 14 13 13 12 12 11 11 12 12 12 13 14 14 15 16 16 17 17 17 17 17 17 18 18 18 18 18 17 17 18 19 19 20 20 20 20 21 23 25 25 24 23 22 22 21 21 20 20 20 20 21 22 22 24 24 24 24 24 24 24 25 26 25 23 23
14 15 14 14 14 15 15 15 16 16 15 14 13 15 15 15 15 15 15 14 14 13 13 13 12 11 11 11 11 11 12 13 13 14 14 15 15 15 15 16 16 16 17 17 18 19 18 18 18 19 19 19 19 19 19 20 20 23 26 27 25 23 22 22 21 21 21 21 20 20 20 22 22 23 24 24 24 25 24 23 24 25 24 23 23
14 15 14 14 15 15 15 15 16 17 16 14 13 15 16 16 15 15 15 15 15 14 14 14 13 11 11 11 11 11 11 11 12 12 13 14 14 15 15 15 16 16 16 17 17 18 18 18 19 20 20 19 19 18 19 19 20 23 27 27 24 23 21 21 21 20 21 21 20 20 20 21 21 22 22 22 23 24 24 23 23 23 24 24 23
14 15 15 15 15 15 14 15 15 16 16 15 15 15 17 16 15 15 15 15 14 15 14 14 13 11 11 11 11 11 11 11 11 11 12 13 14 15 15 16 16 17 17 17 17 17 18 19 20 20 19 19 19 19 18 19 20 22 25 25 20 21 21 21 21 21 20 20 21 21 21 21 21 22 22 22 23 23 23 23 23 23 24 24 23
14 15 15 15 15 15 15 14 14 14 15 16 16 15 16 16 16 15 15 15 15 15 14 14 13 12 11 10 11 11 12 11 11 11 12 13 14 15 16 17 17 17 17 18 18 18 18 19 19 19 19 18 18 19 19 19 20 21 24 23 18 19 20 19 20 19 18 19 21 21 21 22 22 22 23 23 23 22 23 22 22 23 23 23 23
15 16 16 16 14 14 15 14 13 14 15 15 16 15 15 16 16 16 16 16 16 15 14 14 13 12 11 10 11 11 12 11 11 12 13 14 15 15 16 17 17 17 18 18 18 18 19 19 19 19 19 19 19 19 19 19 20 21 22 22 19 17 17 17 17 18 18 19 21 21 21 22 22 23 23 23 23 22 22 21 22 23 23 23 24
16 16 16 16 15 13 15 15 13 14 15 15 15 15 15 16 16 16 17 17 17 16 14 14 13 13 13 12 12 11 11 12 12 13 14 15 15 15 16 16 17 17 18 18 18 18 19 20 20 21 21 20 20 20 19 18 19 20 20 20 19 18 17 17 16 17 20 21 21 20 20 21 22 22 22 22 22 22 21 20 21 23 23 23 24
17 17 15 15 16 14 15 16 13 14 15 14 14 14 14 16 16 16 17 17 17 17 16 15 14 14 14 12 12 12 12 12 12 13 14 15 15 15 15 15 16 17 17 18 18 19 20 21 21 21 19 18 17 17 17 17 19 20 20 19 18 18 18 18 17 19 23 23 22 19 18 20 21 21 21 21 21 20 21 20 21 22 22 22 22
16 16 14 14 17 17 17 15 13 14 14 12 12 13 13 16 17 16 18 18 19 19 18 17 15 15 15 12 12 13 12 13 13 13 14 16 16 15 15 15 16 17 18 19 20 20 21 21 20 17 16 16 16 15 16 18 19 20 21 20 18 17 17 17 19 22 24 23 23 20 18 19 20 21 20 21 21 21 21 21 22 22 21 21 21
16 16 16 16 17 18 18 16 14 15 13 11 12 12 13 15 16 16 18 19 20 20 20 19 17 16 16 14 14 14 13 14 14 13 13 15 16 14 13 14 17 18 18 19 20 20 20 19 17 16 17 18 19 18 18 19 19 20 21 21 21 20 19 18 20 23 23 22 23 21 20 19 20 20 19 19 20 21 22 21 21 20 20 21 20
16 17 18 16 17 18 18 16 14 15 15 13 13 12 12 14 15 16 17 18 19 19 20 21 19 17 17 16 15 14 15 16 14 13 14 14 14 12 12 15 17 16 15 15 16 16 15 17 19 19 20 21 21 20 20 20 20 20 20 21 22 22 22 20 19 22 23 22 23 23 22 20 18 18 18 18 18 19 20 20 20 19 19 20 19
16 17 18 17 18 20 18 17 14 15 16 15 14 13 12 14 15 16 17 17 19 19 20 21 20 19 18 16 16 15 16 17 15 15 14 14 13 12 13 15 15 14 13 13 14 13 14 19 22 22 22 21 21 20 20 20 19 19 19 20 21 22 23 22 20 21 22 22 22 23 23 21 19 18 18 18 18 17 18 18 18 19 19 19 18
17 17 18 18 19 20 20 19 18 16 16 15 15 15 14 14 15 15 16 19 20 20 19 19 20 21 19 17 16 16 17 17 16 16 16 15 14 14 14 14 14 14 14 14 13 13 16 21 22 22 21 20 21 21 20 20 19 19 18 19 20 21 23 23 22 21 21 21 21 21 22 23 21 18 17 17 17 16 17 17 18 18 18 18 19
19 19 18 18 19 20 20 21 20 18 17 16 16 17 16 15 15 16 16 18 19 20 19 18 20 22 22 20 17 17 18 18 18 18 17 17 16 15 14 14 14 16 16 15 14 14 17 19 19 19 20 20 20 20 21 21 20 19 18 19 20 21 22 22 21 21 20 20 19 19 20 22 22 20 18 16 16 15 16 16 17 17 17 18 19
19 20 20 19 18 21 23 23 20 19 19 18 18 18 17 15 16 18 18 18 18 18 20 20 20 21 23 22 19 19 18 18 19 19 19 18 18 17 15 15 15 16 17 15 15 16 16 16 15 16 19 20 19 19 20 21 20 19 18 19 20 21 21 21 21 21 20 19 18 17 17 18 20 20 19 17 16 16 16 16 16 16 17 17 17
19 21 21 20 20 22 26 25 22 20 20 20 19 18 18 16 16 18 20 22 20 17 18 22 22 22 22 22 21 20 19 19 19 20 20 19 19 20 19 18 17 16 17 17 17 17 16 16 15 15 19 21 18 16 18 20 20 20 19 19 20 20 21 20 21 21 20 19 18 17 16 16 16 17 19 18 16 17 18 18 17 16 16 15 16
19 20 20 20 20 23 27 28 25 22 21 22 20 19 18 16 15 17 19 21 21 17 15 20 23 23 22 22 22 21 21 20 20 21 23 20 20 24 24 23 21 20 20 22 23 21 21 21 19 18 20 21 19 16 17 19 20 20 19 20 20 20 21 20 20 20 19 18 17 16 15 14 14 14 16 16 16 18 18 18 18 17 16 15 14
18 18 20 21 19 20 23 25 25 24 22 21 20 20 19 17 15 15 17 16 17 19 19 19 20 22 25 25 23 23 20 19 20 22 24 22 22 26 27 26 26 24 24 26 27 25 25 24 22 21 20 21 21 17 16 17 20 21 20 20 20 20 20 20 19 19 18 17 16 14 12 12 13 12 11 11 13 15 16 17 18 17 16 15 14
18 18 21 22 20 19 20 21 22 24 22 19 20 21 19 18 17 16 16 16 16 18 20 21 18 18 24 27 26 24 21 19 20 20 23 25 24 27 29 29 28 26 25 26 28 27 26 25 24 23 22 22 21 17 15 15 17 19 20 20 20 19 19 19 18 17 16 15 15 14 12 12 12 11 10 9 9 11 12 13 16 17 16 15 14
19 19 20 21 21 20 22 22 21 23 22 20 20 21 19 19 19 19 17 16 17 18 19 21 21 19 22 26 26 26 24 22 21 21 24 27 27 30 32 32 31 29 27 28 29 28 28 27 26 25 24 24 20 18 17 15 16 17 18 20 19 18 18 17 16 16 15 14 13 13 12 12 12 11 11 10 9 9 8 9 11 14 16 16 15
20 20 21 23 23 21 23 24 22 23 22 21 22 22 20 19 20 21 20 17 17 19 22 23 25 26 25 25 26 27 28 26 24 24 26 28 30 32 33 34 33 32 30 31 32 31 31 31 29 27 26 25 21 19 19 18 17 16 17 20 19 17 17 16 15 14 14 13 12 12 11 11 11 12 12 11 11 10 9 9 8 10 12 14 14
22 22 22 24 24 22 24 26 23 22 22 21 23 24 22 20 19 20 21 22 20 19 22 27 31 29 27 28 26 25 30 29 26 27 26 29 31 32 34 36 35 34 33 33 34 33 32 31 30 28 26 25 23 21 22 21 19 16 16 18 18 17 16 15 14 13 13 13 12 12 12 11 11 12 12 12 12 12 11 11 9 9 9 10 10
22 23 23 23 22 22 23 26 25 22 22 21 22 24 22 20 20 18 19 21 22 20 21 27 33 29 26 28 26 24 30 30 28 28 27 28 31 32 34 36 37 36 35 35 35 34 33 32 31 29 27 25 22 21 23 23 20 16 15 17 17 16 16 15 13 13 13 12 12 12 12 11 11 12 12 12 12 12 12 12 11 10 9 8 7
21 22 23 23 23 23 22 25 27 23 21 21 21 23 21 20 20 19 20 20 23 24 22 25 30 29 26 27 26 25 29 31 29 29 29 27 30 33 34 37 39 38 36 36 37 36 35 34 33 32 29 26 22 21 24 25 21 16 14 15 15 15 14 14 12 12 13 12 11 12 12 12 11 12 12 12 12 12 12 11 10 10 9 8 7
20 20 23 24 24 24 23 24 26 24 23 22 22 22 21 21 21 21 22 22 25 26 24 26 29 30 29 27 27 26 28 31 31 29 29 27 29 32 34 37 40 40 39 38 38 37 36 36 34 33 31 29 26 24 25 26 21 15 12 12 12 11 11 11 11 12 13 12 12 12 12 13 12 12 12 12 12 11 11 10 9 9 8 7 6
21 22 23 24 24 23 23 23 24 25 25 23 23 24 25 25 24 23 23 21 25 25 21 26 31 30 30 29 27 27 27 30 31 31 30 28 28 31 34 38 39 40 40 38 38 36 36 36 36 33 30 29 28 27 27 24 17 12 11 11 8 6 7 8 9 11 12 12 12 12 12 12 13 12 11 11 10 10 10 9 9 8 7 7 6
20 21 22 22 22 23 24 23 23 25 25 24 26 28 29 28 26 22 21 20 22 22 20 24 30 30 30 31 31 30 28 29 31 33 33 30 29 30 34 37 39 40 40 38 37 37 37 37 38 35 31 28 25 28 30 21 14 14 11 7 6 4 3 5 7 9 11 12 11 12 12 12 13 12 11 11 10 9 9 8 8 7 7 6 6
18 19 21 22 23 24 24 23 23 24 25 26 29 29 28 26 23 18 18 20 20 21 23 24 28 29 29 32 33 31 29 29 30 31 33 32 30 30 33 36 38 39 40 39 37 38 39 39 38 37 34 30 24 27 29 20 16 19 10 4 6 4 3 6 9 8 10 12 9 10 12 13 13 12 11 11 10 9 9 8 8 7 7 6 5
17 19 21 22 22 22 23 23 22 23 24 26 29 28 25 22 20 19 21 22 20 22 26 27 29 30 31 32 32 31 30 31 30 30 31 32 31 31 32 34 36 35 36 37 38 39 41 41 40 38 36 35 29 28 29 21 18 22 12 4 7 3 3 9 11 7 9 11 9 9 11 12 12 11 10 11 11 9 9 8 8 7 6 5 5
18 18 19 20 19 19 21 22 21 21 22 24 27 27 25 22 22 22 22 21 20 24 30 31 31 33 33 33 32 31 31 31 31 32 32 31 31 29 29 32 34 34 35 36 37 39 41 42 42 40 38 38 33 28 28 24 20 23 16 7 7 2 3 13 10 4 7 9 9 10 11 12 12 11 11 11 11 10 10 9 8 7 6 5 4
17 17 17 18 18 17 19 21 19 20 20 22 26 26 24 22 21 21 21 21 20 24 30 32 31 33 32 31 30 30 30 31 32 33 32 30 29 29 30 33 34 35 36 36 37 38 42 43 42 41 39 37 33 28 29 29 23 23 22 14 9 3 7 14 8 4 6 6 8 10 10 13 13 11 12 12 12 11 11 9 8 7 6 5 4
15 15 16 17 18 18 18 20 19 18 19 21 24 25 24 20 18 20 22 21 19 19 22 27 29 30 30 30 29 29 29 31 32 32 32 30 30 31 31 33 34 35 34 34 36 38 42 44 42 41 40 36 32 29 31 34 29 25 26 22 12 5 9 12 8 7 5 3 7 8 8 12 13 12 12 14 14 13 12 11 9 8 7 5 4
13 15 16 16 18 18 18 20 19 17 19 22 23 24 23 19 18 20 21 20 19 17 17 23 28 28 29 29 27 27 30 32 32 32 32 31 32 32 32 33 34 34 33 33 36 38 41 45 43 41 39 35 32 29 28 33 34 27 26 26 15 6 8 9 7 7 4 3 5 7 9 11 12 12 13 14 15 14 13 13 11 9 8 7 6
12 13 15 15 16 17 17 19 19 17 17 22 25 24 22 19 18 20 21 19 19 18 19 24 27 27 28 29 27 28 31 32 32 32 32 32 31 32 31 33 34 34 34 33 35 38 40 43 44 43 41 37 33 29 25 29 33 27 23 27 19 10 8 7 7 7 4 4 4 7 12 12 10 12 14 16 17 16 16 14 13 11 10 10 8
10 11 13 13 14 15 16 18 18 16 15 18 24 24 21 19 18 20 21 21 20 20 21 24 26 26 27 28 28 30 32 32 32 31 32 31 30 30 30 31 33 33 34 34 36 39 40 41 42 42 40 38 35 31 26 24 27 24 20 22 20 16 11 7 9 10 7 5 5 6 12 13 10 11 13 16 17 17 17 16 15 13 13 12 11
Wind_Direction
147 152 153 145 135 135 129 131 130 132 136 128 126 126 123 117 110 105 101 97 96 95 93 88 81 75 70 62 63 73 76 81 85 85 87 89 90 90 89 90 91 89 87 87 87 86 84 86 86 85 81 78 79 79 79 82 86 89 88 88 86 83 80 75 70 67 69 69 67 67 65 63 61 62 62 62 62 63 64 62 61 59 58 57 58
148 152 148 144 137 134 130 130 129 132 135 128 129 128 125 120 113 108 103 98 96 96 91 85 82 77 72 65 63 72 77 88 93 87 87 91 92 92 92 92 93 91 89 89 90 88 86 86 87 83 81 81 81 80 81 84 88 89 87 85 83 81 79 77 72 67 66 65 63 64 65 64 62 62 62 62 62 63 63 63 64 63 59 58 60
141 145 145 147 138 133 132 131 132 132 133 132 132 129 126 120 114 109 104 99 96 91 88 85 84 77 72 68 64 73 79 86 92 88 89 92 93 94 93 94 94 93 92 92 93 92 89 85 85 84 83 84 83 81 80 84 87 87 87 86 83 81 80 79 77 71 68 67 64 64 64 63 63 63 62 62 62 63 64 64 64 64 62 59 59
138 139 145 150 140 136 135 136 139 135 133 134 134 129 125 119 115 113 108 104 97 90 91 90 85 79 75 70 65 75 82 84 87 88 90 92 94 95 95 95 95 95 95 95 95 94 93 88 86 86 85 83 83 82 79 82 86 86 86 86 85 83 82 80 77 74 72 70 68 66 65 64 63 63 63 62 61 63 64 64 64 64 63 61 60
139 139 147 149 143 142 141 143 144 139 134 134 134 132 128 122 120 118 114 109 102 97 97 95 88 81 78 75 73 78 84 85 86 87 90 92 93 95 95 96 96 97 97 96 95 92 93 91 89 87 85 83 83 84 83 84 85 86 87 87 88 87 83 79 75 74 72 71 69 68 67 66 64 63 62 62 61 63 64 64 64 64 64 64 63
140 144 149 147 149 149 147 146 143 141 139 137 135 132 129 126 125 121 119 114 106 103 101 97 89 84 81 79 80 85 88 86 85 87 89 93 94 96 96 96 97 98 99 98 97 96 94 91 87 85 84 84 84 84 84 85 87 89 89 89 89 87 82 78 75 73 71 71 70 69 68 66 65 63 62 63 63 64 65 65 65 66 66 66 65
144 146 150 150 156 155 151 148 142 143 146 142 139 136 134 130 129 126 123 117 108 106 104 96 89 84 81 77 80 88 92 88 85 88 89 93 95 96 98 98 98 100 101 99 96 94 91 90 87 85 85 84 83 82 81 83 88 92 91 88 86 84 80 77 77 76 72 71 71 70 69 67 66 64 62 64 65 65 66 66 66 67 67 67 67
150 150 153 153 161 160 154 153 147 146 150 146 145 143 141 136 135 133 126 119 111 110 107 95 89 84 80 77 78 89 95 89 87 89 91 93 95 97 99 99 100 102 102 100 97 92 89 90 89 88 86 85 84 81 81 84 89 94 91 87 84 81 79 76 76 78 74 72 73 72 72 71 68 67 66 65 66 67 67 67 66 66 67 68 68
157 157 156 155 166 165 157 158 154 151 156 153 150 148 149 149 147 139 127 120 116 115 110 97 91 88 84 79 78 89 95 90 89 91 93 94 96 98 100 101 103 103 102 101 99 96 95 93 91 91 90 89 86 82 84 87 91 95 92 88 85 81 79 79 78 78 74 73 75 74 74 73 71 70 69 68 68 69 70 69 69 67 67 68 68
160 161 161 163 168 166 163 163 158 157 161 158 152 150 157 161 155 140 128 123 120 119 114 101 95 92 88 82 80 89 94 94 93 94 95 95 97 98 101 104 104 105 103 102 100 97 97 95 93 94 93 91 87 86 87 88 94 95 92 90 87 83 81 81 80 79 78 77 77 77 77 76 75 73 73 73 72 72 73 71 70 69 69 68 68
161 160 162 166 167 166 167 165 161 161 163 158 151 152 159 162 156 139 130 127 123 123 118 109 102 96 91 86 85 91 97 99 98 97 97 98 99 101 103 105 106 105 103 102 102 100 98 97 96 96 95 91 90 91 92 93 97 96 94 91 87 86 84 82 80 78 79 78 77 79 78 77 77 78 81 80 76 76 76 75 74 74 75 73 70
161 160 161 160 164 168 167 164 165 164 164 159 152 156 161 159 152 138 134 132 129 128 124 118 111 104 97 91 90 94 99 102 102 101 101 101 102 103 106 107 107 104 104 104 102 101 100 101 101 100 97 93 94 97 98 101 102 98 95 93 89 89 85 83 82 79 80 79 77 80 78 77 81 81 83 83 80 79 79 79 79 75 75 74 71
163 163 163 160 167 168 166 167 168 169 168 162 155 157 160 157 148 140 140 139 136 133 130 126 121 114 106 99 95 96 100 104 105 105 105 105 105 107 108 109 109 104 105 106 103 102 100 102 102 101 100 96 98 100 102 104 104 99 96 93 90 88 85 83 82 78 78 78 78 81 78 77 81 80 80 80 77 77 76 75 75 73 71 72 71
166 165 164 163 172 172 170 172 172 173 171 165 159 156 158 156 148 145 147 146 144 138 136 132 128 122 114 107 100 100 101 105 108 110 110 109 109 110 110 111 110 106 106 105 102 102 101 102 102 103 103 102 103 104 106 106 104 99 95 93 90 88 85 83 80 75 75 74 74 77 78 77 79 79 79 79 76 75 75 73 72 71 71 72 72
170 169 167 164 174 178 176 174 178 177 175 174 166 161 158 156 151 151 153 152 151 144 141 138 134 128 120 112 105 104 104 106 109 112 114 114 114 114 115 114 112 111 110 110 108 107 106 105 105 106 107 108 107 106 108 108 103 99 97 95 93 91 88 85 81 77 76 73 70 72 74 75 78 79 80 79 78 75 74 73 72 71 70 71 71
176 174 170 168 174 182 182 178 183 183 180 180 172 168 163 160 159 158 157 157 158 149 144 142 138 134 126 117 111 108 107 109 110 112 114 117 119 118 119 119 118 119 117 116 115 113 112 110 109 111 113 113 110 107 109 108 104 102 101 98 94 92 90 88 84 80 80 76 71 69 69 71 75 77 77 78 79 77 74 73 72 70 67 67 69
181 180 176 176 177 182 185 184 187 188 188 184 176 176 170 168 169 166 163 161 161 155 148 146 144 143 134 123 119 114 110 111 112 113 114 117 119 120 122 122 123 124 123 122 120 119 117 113 114 118 119 117 115 112 111 109 106 104 102 97 93 90 87 87 85 82 82 80 75 72 72 72 73 73 74 75 76 75 73 72 71 70 68 66 65
185 185 184 183 181 183 185 188 192 191 193 189 181 183 178 176 178 172 168 166 164 160 154 153 152 151 141 129 124 120 115 113 113 115 116 118 119 120 121 121 123 125 127 128 126 125 120 115 120 124 123 123 121 118 117 113 108 104 100 94 89 87 86 85 85 84 82 81 78 76 76 74 73 73 72 72 73 73 73 73 72 71 71 67 64
191 190 190 187 186 186 184 190 195 194 195 192 188 189 185 183 184 177 173 172 168 164 162 160 161 158 147 135 128 123 118 114 113 115 117 119 120 122 122 121 123 125 127 128 127 125 120 120 126 129 127 127 124 121 120 115 111 106 97 89 85 84 83 83 83 84 82 81 81 81 80 78 77 76 74 74 74 75 76 75 73 72 72 72 68
194 195 196 193 192 189 187 193 194 196 198 195 193 193 191 188 188 184 179 177 173 170 168 167 167 162 151 142 134 125 120 115 114 118 120 122 124 126 126 125 126 127 128 128 128 126 124 128 132 131 129 127 123 122 120 116 115 109 95 86 85 85 82 83 85 84 81 83 87 86 86 84 83 81 79 79 79 80 81 80 78 76 73 71 66
197 198 200 197 195 193 194 194 191 194 195 197 195 193 194 192 192 189 183 181 179 177 174 172 171 166 159 150 138 127 122 121 124 127 127 128 130 132 131 131 131 131 131 131 133 131 130 131 131 128 126 124 120 119 117 116 117 108 94 84 85 89 86 86 87 84 81 86 93 92 90 88 85 84 83 83 85 85 84 83 81 75 69 66 63
199 200 202 200 197 197 199 197 195 193 191 195 195 193 197 195 194 190 188 186 183 182 180 178 175 170 166 153 139 131 127 129 134 135 135 137 136 137 137 137 137 136 135 134 134 132 130 129 128 127 126 123 119 117 116 117 116 106 94 86 85 91 90 87 86 84 83 86 90 91 91 90 89 89 88 87 87 85 84 81 78 74 72 72 70
201 201 201 200 199 199 199 197 198 196 194 196 196 197 199 198 196 191 190 191 187 186 184 183 181 176 171 157 146 141 136 139 146 147 145 143 143 142 141 142 141 140 137 134 132 130 129 129 129 129 125 122 119 117 116 115 113 103 94 89 89 92 92 89 86 87 89 89 88 90 91 92 92 92 91 90 87 84 82 79 78 77 77 77 74
200 201 200 200 202 201 195 195 198 199 198 198 199 198 198 197 196 192 192 195 192 188 188 187 188 182 176 169 158 150 147 155 159 155 151 147 146 147 144 144 143 140 137 133 132 132 131 131 130 127 123 120 119 118 117 116 113 108 100 94 93 95 94 91 88 91 96 95 91 90 91 93 93 92 91 90 87 84 81 78 81 80 76 75 73
198 199 204 204 204 201 195 195 195 199 199 196 201 200 199 196 194 196 195 198 196 191 191 190 191 188 182 177 165 155 157 167 165 152 150 153 150 146 144 143 141 138 136 134 134 134 133 133 130 125 123 123 123 120 120 120 117 116 111 104 99 97 96 92 93 98 100 100 98 92 89 90 91 90 89 88 86 86 86 83 81 79 75 74 72
196 199 205 207 205 202 201 201 197 201 203 199 205 206 205 199 196 198 196 199 199 194 194 192 192 191 185 181 171 164 163 164 163 156 154 156 152 145 143 146 144 139 137 137 137 138 137 136 133 131 132 133 132 130 128 126 124 124 122 117 110 105 101 96 98 103 104 103 104 100 93 88 87 89 89 88 87 86 87 85 80 78 76 74 73
196 201 204 207 204 200 202 205 202 203 206 204 207 210 210 205 200 200 196 198 202 200 200 197 194 194 190 185 180 175 169 166 166 166 164 162 158 154 155 153 148 143 143 144 143 142 142 142 141 140 138 137 137 136 133 132 130 129 128 125 121 117 112 105 102 105 107 107 107 105 101 94 90 89 87 87 87 84 83 82 81 79 78 76 73
194 198 200 205 203 201 203 206 205 202 204 206 208 213 214 212 209 206 202 201 203 205 207 204 199 198 195 189 188 184 174 174 175 173 173 172 172 167 162 157 152 152 154 152 148 145 148 148 145 141 140 139 138 136 134 132 130 130 131 130 128 126 121 116 111 109 110 111 111 110 107 100 95 92 88 87 88 86 83 82 81 79 78 76 73
197 198 198 201 199 201 205 205 205 202 202 206 210 216 217 219 219 213 210 209 208 207 205 204 203 201 198 194 194 190 181 179 181 179 179 179 179 174 165 162 159 158 158 154 152 150 151 149 144 142 141 141 139 137 136 134 132 130 130 132 132 130 127 123 120 115 114 116 116 115 112 104 97 93 90 88 88 86 85 83 81 79 77 75 74
201 199 200 198 195 198 201 200 201 203 206 209 211 215 216 221 225 219 213 212 211 209 204 202 205 204 202 202 199 194 190 186 184 183 184 183 180 177 171 168 164 161 161 158 156 153 151 148 145 144 144 143 141 140 139 136 133 131 132 134 133 133 131 127 125 122 119 120 121 121 119 110 101 95 91 90 89 87 86 85 82 81 78 75 75
201 200 202 200 196 198 200 199 200 203 209 212 212 214 217 223 230 227 221 218 212 210 211 209 207 205 205 207 203 199 197 193 190 188 188 187 182 180 177 172 168 166 164 161 158 154 152 150 147 146 147 147 143 140 140 138 134 132 133 135 136 136 135 132 130 128 125 123 123 123 122 117 110 103 96 92 90 89 87 84 83 82 79 76 74
203 200 201 200 201 204 206 205 204 206 211 213 212 214 217 225 232 232 230 223 214 209 216 217 212 208 208 207 204 201 199 199 198 194 191 189 188 188 185 177 171 168 167 164 162 158 156 155 152 152 153 149 141 137 139 138 136 134 134 136 138 138 137 137 135 132 130 126 124 124 121 118 116 111 106 100 91 87 86 84 84 81 79 78 74
204 203 200 200 204 208 211 212 211 210 213 216 216 216 219 226 228 229 229 219 212 209 214 218 215 215 213 208 205 201 201 204 203 199 195 191 193 195 192 185 178 176 176 173 169 168 167 164 160 156 153 150 145 140 139 138 137 135 135 137 139 138 137 138 137 136 133 130 129 126 122 119 118 118 117 113 102 94 89 84 82 80 79 78 76
202 200 200 201 201 203 207 212 214 213 216 220 218 215 218 223 223 225 228 220 215 216 217 218 218 220 218 212 208 205 204 206 204 202 199 197 197 198 196 192 187 187 187 182 176 177 177 173 166 159 156 155 150 144 141 139 139 138 137 139 140 139 140 139 138 139 137 136 136 131 126 123 121 119 120 121 117 110 100 90 85 82 80 79 76
199 198 200 201 200 199 200 203 208 210 213 215 210 209 213 217 217 220 226 226 222 222 222 220 218 218 216 212 210 209 208 208 206 203 203 205 203 200 200 200 196 192 193 190 184 183 183 179 172 166 162 158 152 145 141 138 140 139 139 142 142 141 142 141 141 142 142 143 143 141 141 138 131 125 122 119 117 118 113 106 100 88 79 79 78
199 199 198 198 200 200 201 202 203 205 208 210 207 207 212 214 215 217 220 221 222 225 227 223 219 219 217 214 213 213 213 209 206 204 204 208 208 202 202 203 199 194 196 196 191 187 184 181 176 172 167 159 152 149 147 144 141 138 140 144 144 144 144 144 145 145 144 147 148 149 150 148 142 134 129 124 118 119 119 122 116 98 86 82 79
201 201 200 201 202 200 206 208 206 207 207 209 209 208 210 212 215 218 220 222 224 226 227 225 224 227 226 224 223 222 218 209 205 208 206 206 207 205 203 202 199 196 197 196 194 191 186 182 177 175 172 164 156 155 153 150 146 141 143 146 147 147 147 147 148 148 148 149 150 151 153 153 150 143 137 131 125 123 121 122 122 111 102 91 82
205 205 205 207 204 200 208 212 207 205 205 205 209 210 210 212 216 220 222 223 223 224 228 229 230 232 231 228 226 224 219 211 209 211 210 209 207 206 205 203 200 198 198 197 196 194 191 187 179 173 172 167 161 160 158 154 149 143 142 146 149 151 151 149 147 149 154 157 158 158 158 159 157 152 147 140 133 130 127 123 120 115 109 100 93
206 206 207 206 202 199 206 213 208 201 202 202 207 211 211 212 215 215 215 218 220 221 227 229 228 227 222 220 219 215 214 212 211 211 211 212 208 205 206 203 202 201 199 199 197 194 190 187 181 174 171 168 165 163 161 157 149 143 143 144 149 152 153 153 153 158 163 164 165 165 165 164 162 156 150 147 143 138 134 128 123 117 109 103 100
204 202 202 202 200 197 198 208 208 199 196 198 202 207 208 210 212 211 212 215 218 220 222 223 221 218 214 212 211 212 214 212 211 211 211 211 207 208 208 205 205 202 199 197 196 195 191 187 184 180 174 169 167 167 164 158 146 137 138 141 146 152 155 159 163 165 165 165 166 167 167 165 163 160 153 149 147 143 139 134 127 122 115 108 100
202 198 199 200 199 198 196 201 204 199 196 198 200 201 200 202 204 207 210 213 217 219 221 221 219 218 217 211 208 213 213 210 209 210 212 212 210 211 210 207 205 203 201 200 198 195 193 190 186 183 181 174 169 168 164 155 143 133 131 130 136 147 156 163 168 171 170 169 171 171 169 168 165 162 157 153 151 147 143 140 135 131 127 117 107
202 199 199 201 198 198 198 199 199 198 200 200 200 203 203 205 208 210 211 213 217 217 218 221 220 220 220 215 212 214 214 213 213 213 216 217 215 213 211 209 207 204 202 200 198 194 190 191 187 181 179 178 173 169 165 158 148 144 141 128 119 135 157 168 177 181 180 177 178 177 174 173 170 162 159 157 156 154 151 149 146 142 139 128 118
204 201 200 200 198 198 199 199 198 199 201 202 206 210 212 214 215 214 211 211 216 216 213 220 222 222 223 221 218 218 219 221 222 222 223 224 221 218 214 210 207 204 200 196 195 194 191 191 191 185 179 176 174 173 172 167 158 149 141 138 138 142 170 192 197 195 192 189 187 186 184 182 176 166 163 164 164 165 162 159 159 152 148 141 132
201 200 199 198 198 200 200 197 197 199 201 206 212 214 216 217 216 213 210 211 215 214 211 219 224 222 222 221 220 222 225 227 227 226 226 225 224 222 217 209 203 199 195 192 192 194 194 194 193 191 183 175 174 180 180 177 174 164 146 131 152 157 224 196 183 192 199 196 191 193 194 189 183 173 171 176 175 175 175 170 170 164 157 152 144
200 201 199 198 199 200 199 196 197 199 201 208 213 213 212 209 205 206 207 210 215 213 209 215 220 218 217 217 219 224 225 226 227 227 226 223 221 221 219 211 201 196 194 193 195 197 198 198 197 195 191 185 181 183 186 189 191 184 171 129 145 192 246 161 156 177 197 197 196 199 199 192 187 182 184 190 185 182 185 181 178 173 168 162 153
202 203 200 200 201 198 198 196 197 199 199 206 211 210 207 203 199 201 203 205 209 209 208 211 215 215 215 216 220 223 223 224 226 225 222 218 215 215 215 209 203 200 198 199 202 203 202 201 200 198 198 195 187 181 188 195 196 194 196 179 159 199 155 147 146 162 182 194 200 201 203 196 190 191 195 196 192 192 191 189 188 184 180 177 168
202 200 198 200 201 199 198 196 197 199 196 202 210 209 206 203 203 206 208 207 208 211 211 212 215 217 217 218 220 221 222 224 223 218 212 210 210 209 207 205 203 201 200 202 205 207 207 204 203 202 199 196 189 182 189 194 193 199 210 207 187 163 148 158 158 143 158 192 201 201 211 205 199 198 201 199 197 199 198 197 197 193 192 193 191
196 191 193 197 200 200 199 198 198 199 197 201 208 209 206 201 205 213 216 215 215 215 214 214 217 219 219 219 220 221 222 219 215 211 208 208 208 206 206 206 206 205 206 210 212 212 210 206 204 203 199 195 193 192 194 194 195 201 209 211 207 183 171 177 180 166 151 157 184 193 207 210 208 204 204 204 201 202 203 204 205 202 205 209 216
188 189 193 196 198 198 199 199 200 198 199 205 207 208 209 203 206 215 217 217 216 216 214 215 218 221 219 218 219 220 216 210 207 207 208 208 208 209 211 211 211 211 212 215 216 213 211 208 204 201 199 197 198 200 200 200 201 203 206 209 209 189 183 193 195 187 166 139 168 184 185 195 210 212 210 207 202 205 207 209 213 212 216 223 230
184 191 193 194 195 198 199 199 202 199 198 207 210 210 210 207 210 215 216 215 213 215 217 216 217 216 215 215 216 217 212 208 206 207 208 208 209 211 215 217 216 215 215 214 212 210 210 210 206 202 200 200 203 205 206 207 206 206 207 206 203 191 182 189 195 192 181 163 162 178 181 183 196 206 208 207 207 209 211 214 217 219 225 231 236
181 186 189 192 194 197 200 201 204 202 196 203 210 213 211 210 214 216 216 215 213 213 212 210 210 209 210 213 214 215 213 210 209 208 209 209 211 214 218 221 219 218 217 214 211 210 209 208 205 203 202 201 204 207 209 211 208 207 208 205 204 203 196 196 199 195 190 179 155 164 180 186 193 197 201 208 212 213 214 218 219 221 228 235 240